This is the latest recevied weather packets stored in our database for station/object SQ9RHX-13. If no packets are shown the sender has not sent any weather packets the latest 10 day(s).
| Time | Temp. | Humidity | Pressure | Rain* | Wind** | Luminosity | Snow |
|---|---|---|---|---|---|---|---|
| 1778001904 | 21.67° C | 60% | 1009 hPa | 0 mm | - | 22 W/m² | - |
| 1778001604 | 21.67° C | 59% | 1009.1 hPa | 0 mm | - | 25 W/m² | - |
| 1778001304 | 22.22° C | 59% | 1009 hPa | 0 mm | - | 27 W/m² | - |
| 1778001003 | 22.22° C | 58% | 1008.9 hPa | 0 mm | - | 30 W/m² | - |
| 1778000705 | 22.78° C | 57% | 1009 hPa | 0 mm | - | 33 W/m² | - |
| 1778000404 | 22.78° C | 56% | 1008.9 hPa | 0 mm | - | 35 W/m² | - |
| 1778000104 | 23.33° C | 55% | 1008.9 hPa | 0 mm | - | 38 W/m² | - |
| 1777999804 | 23.89° C | 53% | 1009 hPa | 0 mm | - | 48 W/m² | - |
| 1777999502 | 25.56° C | 47% | 1008.8 hPa | 0 mm | - | 62 W/m² | - |
| 1777999203 | 25.56° C | 36% | 1008.7 hPa | 0 mm | - | 67 W/m² | - |
| 1777998902 | 25.56° C | 36% | 1008.5 hPa | 0 mm | - | 78 W/m² | - |
| 1777998604 | 25.56° C | 36% | 1008.6 hPa | 0 mm | - | 82 W/m² | - |
| 1777998302 | 25.56° C | 36% | 1008.7 hPa | 0 mm | - | 87 W/m² | - |
| 1777998003 | 25.56° C | 37% | 1008.6 hPa | 0 mm | - | 78 W/m² | - |
| 1777997705 | 26.11° C | 35% | 1008.7 hPa | 0 mm | - | 85 W/m² | - |
| 1777997402 | 26.11° C | 34% | 1008.8 hPa | 0 mm | - | 98 W/m² | - |
| 1777997104 | 26.67° C | 33% | 1008.7 hPa | 0 mm | - | 107 W/m² | - |
| 1777996802 | 26.67° C | 33% | 1008.8 hPa | 0 mm | - | 115 W/m² | - |
| 1777996502 | 27.22° C | 32% | 1008.8 hPa | 0 mm | - | 113 W/m² | - |
| 1777996203 | 27.22° C | 32% | 1009 hPa | 0 mm | - | 129 W/m² | - |
| 1777995903 | 27.78° C | 33% | 1008.9 hPa | 0 mm | - | 153 W/m² | - |
| 1777995603 | 27.78° C | 31% | 1008.9 hPa | 0 mm | - | 161 W/m² | - |
| 1777995304 | 28.33° C | 30% | 1008.9 hPa | 0 mm | - | 162 W/m² | - |
| 1777995005 | 28.33° C | 30% | 1009.1 hPa | 0 mm | - | 169 W/m² | - |
| 1777994703 | 27.78° C | 31% | 1009.1 hPa | 0 mm | - | 169 W/m² | - |
* Rain latest hour (hover to see other rain measurements)
** Current wind speed in m/s (hover to see current wind gust speed)